Hauptseite
METAR-TAF:

METAR-TAF

Flughäfen :

Bergamo, Italien

Flughafen Bergamo

Breite: 45-40N, Länge: 009-42E, Höhe: 238 m

Beobachtung

Neuester Wetterbericht von vor 26 Minuten, um 22:50 UTC
Wind 6 kt aus Nord/Nordost
Temperatur 17°C
Luftfeuchtigkeit 68%
Luftdruck 1019 hPa
Sichtweite 10 km oder mehr
keine Wolken unter 1500 m und keine Kumulonimbus oder Gewitterwolken

METAR: LIME 212250Z 02006KT CAVOK 17/11 Q1019 NOSIG

Zeit: 01:16 (23:16 UTC)

Prognose

Neuester Wetterbericht von vor 6 Stunden und 16 Minuten, um 17:00 UTC
Gültige Prognose vom 21 um 18 UTC bis 22 um 18 UTC
Wind 5 kt aus unterschiedlichen Richtungen
Sichtweite 10 km oder mehr
keine Wolken unter 1500 m und keine Kumulonimbus oder Gewitterwolken

TAF: LIME 211700Z 2118/2218 VRB05KT CAVOK

Wetterbeobachtungen und Prognosen von mehr als 4000 Flughäfen (METAR und TAF Bericht).

Die verfügbaren Stationen werden durch gelbe und rote Markierungen auf der Karte dargestellt.

Führen Sie die Maus auf sie, um den Namen der Station zu sehen.

Darauf klicken, um die Beobachtung von Wetterbeobachtungen und Prognosen zu sehen.

Um die Karte zu ändern : klicken Sie auf den grünen Tasten mit einem schwarzen Kreuz Zum Vergrößern, auf den grünen Button mit einem Gedankenstrich zu verkleinern, oder auf die grünen Pfeile für benachbarte Karten.


METAR-TAF: